Weather History for Port Angeles, WA

Change the Weather History Date:

Tuesday, December 31, 2013

  Actual Average Record
Temperature  
Mean Temperature 40 °F -  
Max Temperature 46 °F 43 °F 57 °F (1958)
Min Temperature 35 °F 33 °F 16 °F (1968)
Degree Days  
Heating Degree Days 24    
Moisture  
Dew Point 38 °F    
Average Humidity 93    
Maximum Humidity 97    
Minimum Humidity 86    
Precipitation  
Precipitation 0.00 in - - ()
Sea Level Pressure  
Sea Level Pressure 30.27 in    
Wind  
Wind Speed 2 mph (SW)    
Max Wind Speed 6 mph    
Max Gust Speed -    
Visibility 8 miles    
Events Fog    
Averages and records for this station are not official NWS values.
T = Trace of Precipitation, MM = Missing Value Source: NWS Daily Summary

Daily Weather History Graph

Daily Weather History Graph

Search for Another Location

Airport:

Trip Planner

Search our weather history database for the weather conditions in past years. The results will help you decide how hot, cold, wet, or windy it might be!

Date:

Astronomy

Dec. 31, 2013 Rise Set
Actual Time 8:04 AM PST 4:30 PM PST
Civil Twilight 7:28 AM PST 5:06 PM PST
Nautical Twilight 6:48 AM PST 5:46 PM PST
Astronomical Twilight 6:10 AM PST 6:24 PM PST
Moon 6:59 AM PST (12/31) 4:16 PM PST (12/31)
Length of Visible Light 9h 38m
Length of Day
8h 25m
Waning Crescent, 1% of the Moon is Illuminated
Dec 31
Waning Crescent
Jan 1
New
Jan 7
First Quarter
Jan 15
Full
Jan 23
Last Quarter

Hourly Weather History & Observations

Time (PST) Temp. Windchill Dew Point Humidity Pressure Visibility Wind Dir Wind Speed Gust Speed Precip Events Conditions
12:53 AM 39.9 °F - 39.0 °F 97% 30.17 in 10.0 mi Calm Calm - N/A   Scattered Clouds
1:05 AM 37.9 °F - 37.0 °F 97% 30.16 in 1.5 mi Calm Calm - N/A   Partly Cloudy
1:07 AM 37.0 °F 34.5 °F 36.0 °F 96% 30.16 in 0.8 mi SSE 3.5 mph - N/A   Partly Cloudy
1:17 AM 37.9 °F - 36.0 °F 93% 30.17 in 0.5 mi Calm Calm - N/A Fog Fog
1:42 AM 37.9 °F 35.5 °F 36.0 °F 93% 30.17 in 1.2 mi SE 3.5 mph - N/A   Partly Cloudy
1:45 AM 37.9 °F 35.5 °F 36.0 °F 93% 30.17 in 3.0 mi SE 3.5 mph - N/A   Partly Cloudy
1:53 AM 37.9 °F 35.5 °F 37.0 °F 97% 30.18 in 7.0 mi SE 3.5 mph - N/A   Clear
2:00 AM 37.0 °F - 36.0 °F 96% 30.17 in 1.8 mi Calm Calm - N/A   Clear
2:18 AM 37.0 °F - 35.1 °F 93% 30.18 in 1.5 mi Calm Calm - N/A   Scattered Clouds
2:21 AM 37.0 °F - 36.0 °F 96% 30.18 in 4.0 mi Calm Calm - N/A   Scattered Clouds
2:29 AM 37.9 °F - 37.0 °F 97% 30.18 in 10.0 mi Calm Calm - N/A   Mostly Cloudy
2:53 AM 37.9 °F 35.5 °F 37.0 °F 97% 30.20 in 10.0 mi South 3.5 mph - N/A   Overcast
3:03 AM 37.9 °F 34.4 °F 37.0 °F 97% 30.19 in 10.0 mi SSW 4.6 mph - N/A   Overcast
3:45 AM 36.0 °F 32.1 °F 34.0 °F 93% 30.18 in 7.0 mi WSW 4.6 mph - N/A   Scattered Clouds
3:53 AM 36.0 °F 31.1 °F 35.1 °F 97% 30.19 in 10.0 mi SW 5.8 mph - N/A   Partly Cloudy
4:53 AM 37.0 °F 32.4 °F 36.0 °F 96% 30.21 in 10.0 mi WSW 5.8 mph - N/A   Clear
5:40 AM 37.0 °F - 36.0 °F 96% 30.19 in 10.0 mi Calm Calm - N/A   Mostly Cloudy
5:53 AM 41.0 °F 39.0 °F 39.0 °F 93% 30.20 in 10.0 mi West 3.5 mph - N/A   Mostly Cloudy
6:18 AM 39.9 °F 36.7 °F 37.9 °F 93% 30.20 in 10.0 mi WSW 4.6 mph - N/A   Partly Cloudy
6:53 AM 39.9 °F 37.8 °F 37.9 °F 93% 30.21 in 10.0 mi SW 3.5 mph - N/A   Mostly Cloudy
7:53 AM 39.9 °F 36.7 °F 37.9 °F 93% 30.22 in 10.0 mi West 4.6 mph - N/A   Overcast
8:53 AM 39.9 °F - 39.0 °F 97% 30.24 in 10.0 mi Calm Calm - N/A   Partly Cloudy
9:10 AM 41.0 °F - 39.0 °F 93% 30.24 in 10.0 mi Calm Calm - N/A   Mostly Cloudy
9:53 AM 42.1 °F - 39.9 °F 92% 30.27 in 10.0 mi Calm Calm - N/A   Mostly Cloudy
10:04 AM 43.0 °F - 41.0 °F 93% 30.27 in 10.0 mi Calm Calm - N/A   Overcast
10:13 AM 44.1 °F - 41.0 °F 89% 30.27 in 10.0 mi Calm Calm - N/A   Overcast
10:38 AM 45.0 °F 41.8 °F 42.1 °F 90% 30.27 in 10.0 mi WSW 5.8 mph - N/A   Overcast
10:53 AM 46.0 °F 43.1 °F 42.1 °F 86% 30.29 in 10.0 mi WNW 5.8 mph - N/A   Overcast
11:31 AM 46.0 °F - 43.0 °F 89% 30.27 in 10.0 mi Calm Calm - N/A   Overcast
11:43 AM 46.0 °F 44.8 °F 43.0 °F 89% 30.27 in 10.0 mi WSW 3.5 mph - N/A   Overcast
11:53 AM 46.9 °F - 43.0 °F 86% 30.28 in 10.0 mi West 4.6 mph - N/A   Overcast
12:53 PM 46.9 °F - 44.1 °F 90% 30.27 in 10.0 mi NNW 4.6 mph - N/A   Overcast
1:06 PM 46.9 °F - 43.0 °F 86% 30.27 in 10.0 mi NNW 4.6 mph - N/A   Overcast
1:53 PM 46.0 °F 44.8 °F 43.0 °F 89% 30.29 in 10.0 mi NNW 3.5 mph - N/A   Overcast
2:53 PM 46.0 °F - 43.0 °F 89% 30.31 in 10.0 mi Calm Calm - N/A   Overcast
3:04 PM 46.0 °F - 43.0 °F 89% 30.30 in 10.0 mi Calm Calm - N/A   Overcast
3:23 PM 46.0 °F - 42.1 °F 86% 30.30 in 10.0 mi Calm Calm - N/A   Overcast
3:53 PM 46.0 °F 44.8 °F 42.1 °F 86% 30.32 in 10.0 mi SW 3.5 mph - N/A   Overcast
4:38 PM 45.0 °F - 42.1 °F 90% 30.33 in 10.0 mi Calm Calm - N/A   Overcast
4:53 PM 45.0 °F - 42.1 °F 90% 30.34 in 10.0 mi Calm Calm - N/A   Overcast
5:53 PM 39.9 °F 37.8 °F 37.9 °F 93% 30.35 in 10.0 mi SE 3.5 mph - N/A   Overcast
6:53 PM 37.9 °F 35.5 °F 37.0 °F 97% 30.34 in 10.0 mi SSE 3.5 mph - N/A   Clear
7:06 PM 35.1 °F - 34.0 °F 96% 30.33 in 1.8 mi Calm Calm - N/A   Clear
7:17 PM 37.0 °F - 35.1 °F 93% 30.34 in 0.5 mi Calm Calm - N/A Fog Fog
7:27 PM 36.0 °F - 35.1 °F 97% 30.34 in 2.0 mi Calm Calm - N/A   Clear
7:37 PM 36.0 °F - 35.1 °F 97% 30.34 in 1.2 mi Calm Calm - N/A   Clear
7:53 PM 35.1 °F 32.2 °F 33.1 °F 92% 30.35 in 2.0 mi SE 3.5 mph - N/A   Clear
8:02 PM 36.0 °F 31.1 °F 34.0 °F 93% 30.34 in 4.0 mi SE 5.8 mph - N/A   Clear
8:53 PM 36.0 °F - 35.1 °F 97% 30.36 in 9.0 mi Calm Calm - N/A   Clear
9:53 PM 37.0 °F - 36.0 °F 96% 30.37 in 8.0 mi Calm Calm - N/A   Clear
10:27 PM 36.0 °F - 34.0 °F 93% 30.36 in 2.5 mi Calm Calm - N/A   Clear
10:35 PM 36.0 °F - 35.1 °F 97% 30.36 in 6.0 mi Calm Calm - N/A   Clear
10:53 PM 37.9 °F 34.4 °F 36.0 °F 93% 30.38 in 10.0 mi WSW 4.6 mph - N/A   Clear
11:44 PM 37.0 °F 34.5 °F 35.1 °F 93% 30.38 in 10.0 mi SW 3.5 mph - N/A   Mostly Cloudy
11:53 PM 37.0 °F 32.4 °F 35.1 °F 93% 30.40 in 10.0 mi SW 5.8 mph - N/A   Overcast